EN

Hourly Weather Ozod

Today, 3 March, Wednesday

Time Temperature Precipitation Wind Pressure Humidity
00:00 +10°C° 0 mm 2 mps 726 mmHg 51%
01:00 +9°C° 0 mm 2 mps 726 mmHg 55%
02:00 +9°C° 0 mm 2 mps 725 mmHg 58%
03:00 +10°C° 0 mm 1 mps 725 mmHg 61%
04:00 +9°C° 0 mm 1 mps 725 mmHg 63%
05:00 +9°C° 0 mm 1 mps 725 mmHg 67%
06:00 +9°C° 0.3 mm 1 mps 725 mmHg 72%
07:00 +9°C° 0.3 mm 1 mps 725 mmHg 77%
08:00 +9°C° 0.3 mm 1 mps 725 mmHg 81%
09:00 +8°C° 1.1 mm 1 mps 725 mmHg 84%
10:00 +8°C° 1.1 mm 1 mps 725 mmHg 86%
11:00 +7°C° 0 mm 2 mps 724 mmHg 88%
12:00 +7°C° 0.5 mm 2 mps 724 mmHg 86%
13:00 +7°C° 0.5 mm 3 mps 724 mmHg 85%
14:00 +7°C° 0.5 mm 3 mps 724 mmHg 84%
15:00 +7°C° 0.1 mm 3 mps 724 mmHg 83%
16:00 +7°C° 0.1 mm 3 mps 724 mmHg 82%
17:00 +8°C° 0 mm 3 mps 725 mmHg 81%
18:00 +8°C° 0.1 mm 3 mps 725 mmHg 82%
19:00 +8°C° 0.1 mm 2 mps 725 mmHg 83%
20:00 +7°C° 0.1 mm 2 mps 725 mmHg 84%
21:00 +7°C° 0.1 mm 2 mps 726 mmHg 83%
22:00 +7°C° 0.1 mm 2 mps 726 mmHg 83%
23:00 +7°C° 0.1 mm 2 mps 726 mmHg 83%

Tomorrow, 4 March, Thursday

Time Temperature Precipitation Wind Pressure Humidity
00:00 +7°C° 0 mm 2 mps 726 mmHg 82%
01:00 +7°C° 0 mm 2 mps 726 mmHg 81%
02:00 +7°C° 0 mm 2 mps 725 mmHg 80%
03:00 +7°C° 0 mm 2 mps 725 mmHg 79%
04:00 +7°C° 0 mm 1 mps 725 mmHg 78%
05:00 +7°C° 0 mm 1 mps 725 mmHg 77%
06:00 +7°C° 0 mm 1 mps 725 mmHg 74%
07:00 +8°C° 0 mm 1 mps 725 mmHg 71%
08:00 +8°C° 0 mm 1 mps 725 mmHg 69%
09:00 +10°C° 0 mm 1 mps 725 mmHg 63%
10:00 +11°C° 0 mm 1 mps 724 mmHg 56%
11:00 +13°C° 0 mm 1 mps 724 mmHg 50%
12:00 +13°C° 0 mm 1 mps 723 mmHg 46%
13:00 +14°C° 0 mm 1 mps 723 mmHg 42%
14:00 +15°C° 0 mm 1 mps 723 mmHg 38%
15:00 +15°C° 0 mm 1 mps 723 mmHg 40%
16:00 +14°C° 0 mm 1 mps 723 mmHg 42%
17:00 +14°C° 0 mm 1 mps 723 mmHg 44%
18:00 +13°C° 0 mm 1 mps 724 mmHg 47%
19:00 +13°C° 0 mm 1 mps 724 mmHg 51%
20:00 +12°C° 0 mm 1 mps 724 mmHg 54%
21:00 +11°C° 0.5 mm 1 mps 724 mmHg 63%
22:00 +10°C° 0.5 mm 1 mps 724 mmHg 73%
23:00 +9°C° 0.5 mm 2 mps 725 mmHg 82%

Day after tomorrow, 5 March, Friday

Time Temperature Precipitation Wind Pressure Humidity
00:00 +8°C° 1.2 mm 2 mps 724 mmHg 83%
01:00 +8°C° 1.2 mm 2 mps 724 mmHg 85%
02:00 +8°C° 1.2 mm 3 mps 724 mmHg 87%
03:00 +8°C° 0.1 mm 2 mps 725 mmHg 85%
04:00 +8°C° 0.1 mm 2 mps 725 mmHg 83%
05:00 +8°C° 0.1 mm 2 mps 725 mmHg 82%
06:00 +8°C° 0.3 mm 3 mps 726 mmHg 79%
07:00 +7°C° 0.3 mm 4 mps 727 mmHg 77%
08:00 +7°C° 0.3 mm 5 mps 728 mmHg 74%
09:00 +7°C° 0 mm 4 mps 728 mmHg 68%
10:00 +9°C° 0 mm 3 mps 728 mmHg 62%
11:00 +10°C° 0 mm 2 mps 728 mmHg 56%
12:00 +10°C° 0 mm 2 mps 728 mmHg 52%
13:00 +12°C° 0 mm 2 mps 728 mmHg 48%
14:00 +13°C° 0 mm 2 mps 728 mmHg 44%
15:00 +13°C° 0 mm 2 mps 728 mmHg 44%
16:00 +13°C° 0 mm 2 mps 728 mmHg 44%
17:00 +13°C° 0 mm 2 mps 728 mmHg 44%
18:00 +12°C° 0 mm 2 mps 728 mmHg 49%
19:00 +10°C° 0 mm 3 mps 729 mmHg 54%
20:00 +9°C° 0 mm 3 mps 729 mmHg 59%
21:00 +8°C° 0 mm 3 mps 729 mmHg 58%
22:00 +8°C° 0 mm 3 mps 729 mmHg 56%
23:00 +7°C° 0 mm 3 mps 728 mmHg 54%

6 March, Saturday

Time Temperature Precipitation Wind Pressure Humidity
00:00 +7°C° 0 mm 3 mps 728 mmHg 53%
01:00 +7°C° 0 mm 2 mps 727 mmHg 51%
02:00 +6°C° 0 mm 2 mps 727 mmHg 49%
03:00 +6°C° 0 mm 2 mps 726 mmHg 49%
04:00 +6°C° 0 mm 2 mps 726 mmHg 49%
05:00 +5°C° 0 mm 2 mps 725 mmHg 49%
06:00 +6°C° 0 mm 2 mps 725 mmHg 48%
07:00 +6°C° 0 mm 2 mps 724 mmHg 47%
08:00 +6°C° 0 mm 2 mps 723 mmHg 46%
09:00 +8°C° 0 mm 2 mps 722 mmHg 41%
10:00 +10°C° 0 mm 2 mps 721 mmHg 36%
11:00 +12°C° 0 mm 2 mps 720 mmHg 31%
12:00 +13°C° 0 mm 2 mps 719 mmHg 30%
13:00 +15°C° 0 mm 2 mps 718 mmHg 28%
14:00 +16°C° 0 mm 2 mps 717 mmHg 26%
15:00 +15°C° 0 mm 1 mps 717 mmHg 27%
16:00 +15°C° 0 mm 1 mps 717 mmHg 29%
17:00 +15°C° 0 mm 1 mps 717 mmHg 31%
18:00 +14°C° 0 mm 1 mps 718 mmHg 34%
19:00 +13°C° 0 mm 1 mps 718 mmHg 37%
20:00 +12°C° 0 mm 1 mps 719 mmHg 41%
21:00 +12°C° 0 mm 1 mps 719 mmHg 42%
22:00 +11°C° 0 mm 1 mps 719 mmHg 44%
23:00 +11°C° 0 mm 1 mps 720 mmHg 45%

7 March, Sunday

Time Temperature Precipitation Wind Pressure Humidity
00:00 +11°C° 0 mm 1 mps 719 mmHg 46%
01:00 +10°C° 0 mm 1 mps 719 mmHg 46%
02:00 +10°C° 0 mm 1 mps 719 mmHg 47%
03:00 +10°C° 0 mm 1 mps 719 mmHg 47%
04:00 +10°C° 0 mm 1 mps 720 mmHg 48%
05:00 +10°C° 0 mm 1 mps 720 mmHg 48%
06:00 +10°C° 0 mm 1 mps 720 mmHg 49%
07:00 +10°C° 0 mm 1 mps 720 mmHg 51%
08:00 +10°C° 0 mm 1 mps 721 mmHg 52%
09:00 +11°C° 0 mm 1 mps 721 mmHg 50%
10:00 +12°C° 0 mm 1 mps 721 mmHg 48%
11:00 +12°C° 0 mm 1 mps 721 mmHg 46%
12:00 +13°C° 0 mm 2 mps 721 mmHg 45%
13:00 +14°C° 0 mm 2 mps 721 mmHg 44%
14:00 +14°C° 0 mm 2 mps 721 mmHg 44%
15:00 +14°C° 0 mm 2 mps 721 mmHg 44%
16:00 +14°C° 0 mm 2 mps 721 mmHg 45%
17:00 +14°C° 0 mm 2 mps 722 mmHg 45%
18:00 +13°C° 0 mm 2 mps 722 mmHg 50%
19:00 +12°C° 0 mm 1 mps 722 mmHg 55%
20:00 +11°C° 0 mm 1 mps 723 mmHg 60%
21:00 +11°C° 0 mm 1 mps 723 mmHg 61%
22:00 +10°C° 0 mm 1 mps 723 mmHg 62%
23:00 +10°C° 0 mm 1 mps 723 mmHg 64%

8 March, Monday

Time Temperature Precipitation Wind Pressure Humidity
00:00 +9°C° 0 mm 1 mps 723 mmHg 64%
01:00 +9°C° 0 mm 1 mps 722 mmHg 64%
02:00 +7°C° 0 mm 0 mps 722 mmHg 64%
03:00 +7°C° 0 mm 0 mps 722 mmHg 65%
04:00 +7°C° 0 mm 0 mps 722 mmHg 65%
05:00 +7°C° 0 mm 0 mps 722 mmHg 65%
06:00 +8°C° 0 mm 1 mps 723 mmHg 63%
07:00 +8°C° 0 mm 1 mps 723 mmHg 61%
08:00 +9°C° 0 mm 1 mps 723 mmHg 59%
09:00 +10°C° 0 mm 1 mps 723 mmHg 53%
10:00 +11°C° 0 mm 0 mps 723 mmHg 48%
11:00 +12°C° 0 mm 0 mps 723 mmHg 42%
12:00 +13°C° 0 mm 0 mps 722 mmHg 40%
13:00 +15°C° 0 mm 1 mps 722 mmHg 38%
14:00 +15°C° 0 mm 1 mps 722 mmHg 36%
15:00 +15°C° 0 mm 1 mps 722 mmHg 36%
16:00 +15°C° 0 mm 1 mps 723 mmHg 37%
17:00 +15°C° 0 mm 1 mps 723 mmHg 37%
18:00 +15°C° 0 mm 1 mps 723 mmHg 41%
19:00 +14°C° 0 mm 1 mps 724 mmHg 44%
20:00 +12°C° 0 mm 0 mps 724 mmHg 48%
21:00 +13°C° 0 mm 1 mps 725 mmHg 49%
22:00 +12°C° 0 mm 1 mps 725 mmHg 51%
23:00 +12°C° 0 mm 1 mps 725 mmHg 52%
Show more

We Need Your Consent

Meteoprog and our Service Providers may store and access personal data such as cookies, device identifiers or other similar technologies on your device and process such data to personalise content and ads, as well as provide social media features and to analyse the traffic.

  • Store and/or access information on your device

    Cookies, device identifiers or other information can be stored or accessed on your device for the purposes indicated above.

  • Personalised ads and content, ad and content measurement, audience insights, and products development

    Ads and content can be personalised based on a profile. More data can be added to better personalise ads and content. Ad and content performance can be measured. Insights about the audience who saw the ads and content can be derived. Such data can be used to develop or improve user’s experience, systems and software.

By clicking ‘I Agree’ you will allow the use of indicated cookies, device identifiers, web beacons or other similar technologies. Your settings can be changed in the browser on your device.

For certain purposes, legitimate interests may be relied on, rather than consent. You can read more about this in our Privacy and Cookie Policy.